| time (UTC) | temp F | wind direction | speed MPH | gust MPH | rain 1hr in | rain 24hr in | rain mn in | humidity % | barometer mb |
| 20260505033502 | 54 | 180 | 4.0 | 6.0 | 0.00 | 0.00 | 0.00 | 45 | 1007.5 |
| 20260505032402 | 54 | 180 | 3.0 | 7.0 | 0.00 | 0.00 | 0.00 | 45 | 1007.5 |
| 20260505031302 | 55 | 135 | 4.0 | 6.0 | 0.00 | 0.00 | 0.00 | 45 | 1007.5 |
| 20260505025003 | 55 | 248 | 10.0 | 10.0 | 0.00 | 0.00 | 0.00 | 45 | 1006.4 |
| 20260505023902 | 55 | 135 | 8.0 | 12.0 | 0.00 | 0.00 | 0.00 | 45 | 1006.4 |
| 20260505022702 | 56 | 158 | 9.0 | 9.0 | 0.00 | 0.00 | 0.00 | 44 | 1006.4 |
| 20260505020502 | 56 | 135 | 4.0 | 6.0 | 0.00 | 0.00 | 0.00 | 45 | 1006.1 |
| 20260505015402 | 57 | 180 | 3.0 | 9.0 | 0.00 | 0.00 | 0.00 | 45 | 1006.1 |
| 20260505014302 | 57 | 248 | 4.0 | 15.0 | 0.00 | 0.00 | 0.00 | 44 | 1005.8 |
| 20260505013203 | 57 | 158 | 15.0 | 15.0 | 0.00 | 0.00 | 0.00 | 44 | 1005.4 |
| 20260505012103 | 58 | 225 | 8.0 | 9.0 | 0.00 | 0.00 | 0.00 | 41 | 1005.1 |
| 20260505011003 | 60 | 293 | 5.0 | 5.0 | 0.00 | 0.00 | 0.00 | 40 | 1005.1 |
| 20260505004702 | 62 | 180 | 5.0 | 7.0 | 0.00 | 0.00 | 0.00 | 37 | 1004.7 |
| 20260505003602 | 63 | 180 | 3.0 | 13.0 | 0.00 | 0.00 | 0.00 | 37 | 1004.7 |
| 20260505002503 | 64 | 180 | 6.0 | 7.0 | 0.00 | 0.00 | 0.00 | 35 | 1004.7 |
| 20260505000204 | 66 | 135 | 9.0 | 9.0 | 0.00 | 0.00 | 0.00 | 35 | 1004.4 |
| 20260504235102 | 68 | 270 | 5.0 | 7.0 | 0.00 | 0.00 | 0.00 | 35 | 1004.1 |
| 20260504234002 | 68 | 203 | 9.0 | 9.0 | 0.00 | 0.00 | 0.00 | 34 | 1003.7 |
| 20260504231802 | 73 | 180 | 9.0 | 9.0 | 0.00 | 0.00 | 0.00 | 30 | 1003.4 |
| 20260504230701 | 73 | 135 | 9.0 | 9.0 | 0.00 | 0.00 | 0.00 | 30 | 1003.4 |
| 20260504225603 | 74 | 113 | 7.0 | 7.0 | 0.00 | 0.00 | 0.00 | 30 | 1003.0 |
| 20260504224402 | 75 | 203 | 9.0 | 9.0 | 0.00 | 0.00 | 0.00 | 30 | 1003.0 |
| 20260504223302 | 76 | 180 | 5.0 | 10.0 | 0.00 | 0.00 | 0.00 | 29 | 1002.7 |
| 20260504221102 | 77 | 180 | 6.0 | 9.0 | 0.00 | 0.00 | 0.00 | 29 | 1002.4 |
| 20260504220003 | 77 | 180 | 4.0 | 5.0 | 0.00 | 0.00 | 0.00 | 27 | 1001.7 |
| 20260504213802 | 79 | 203 | 3.0 | 9.0 | 0.00 | 0.00 | 0.00 | 27 | 1001.7 |
| 20260504212702 | 79 | 113 | 3.0 | 12.0 | 0.00 | 0.00 | 0.00 | 27 | 1001.7 |
| 20260504211602 | 79 | 135 | 4.0 | 7.0 | 0.00 | 0.00 | 0.00 | 30 | 1001.4 |
| 20260504210502 | 79 | 158 | 5.0 | 11.0 | 0.00 | 0.00 | 0.00 | 30 | 1001.4 |
| 20260504205402 | 80 | 180 | 5.0 | 6.0 | 0.00 | 0.00 | 0.00 | 31 | 1001.4 |
| 20260504204202 | 79 | 158 | 4.0 | 8.0 | 0.00 | 0.00 | 0.00 | 32 | 1001.4 |
| 20260504203102 | 79 | 180 | 4.0 | 7.0 | 0.00 | 0.00 | 0.00 | 34 | 1001.4 |
| 20260504202003 | 80 | 270 | 3.0 | 8.0 | 0.00 | 0.00 | 0.00 | 35 | 1001.4 |
| 20260504200902 | 79 | 203 | 7.0 | 7.0 | 0.00 | 0.00 | 0.00 | 35 | 1001.4 |
| 20260504193602 | 79 | 180 | 3.0 | 11.0 | 0.00 | 0.00 | 0.00 | 35 | 1001.0 |
| 20260504192502 | 80 | 203 | 5.0 | 9.0 | 0.00 | 0.00 | 0.00 | 35 | 1001.0 |
| 20260504191302 | 79 | 180 | 7.0 | 7.0 | 0.00 | 0.00 | 0.00 | 35 | 1001.0 |
| 20260504190202 | 80 | 180 | 9.0 | 9.0 | 0.00 | 0.00 | 0.00 | 35 | 1001.0 |
| 20260504185003 | 80 | 68 | 6.0 | 7.0 | 0.00 | 0.00 | 0.00 | 32 | 1000.7 |
| 20260504183902 | 80 | 113 | 3.0 | 6.0 | 0.00 | 0.00 | 0.00 | 34 | 1000.3 |
| 20260504182702 | 80 | 135 | 4.0 | 8.0 | 0.00 | 0.00 | 0.00 | 32 | 1000.7 |
| 20260504181503 | 80 | 180 | 7.0 | 7.0 | 0.00 | 0.00 | 0.00 | 32 | 1000.7 |
| 20260504180502 | 81 | 203 | 3.0 | 6.0 | 0.00 | 0.00 | 0.00 | 31 | 1000.7 |
| 20260504175403 | 80 | 315 | 4.0 | 6.0 | 0.00 | 0.00 | 0.00 | 31 | 1001.0 |
| 20260504174203 | 80 | 338 | 2.0 | 5.0 | 0.00 | 0.00 | 0.00 | 34 | 1001.0 |
| 20260504173202 | 79 | 248 | 4.0 | 7.0 | 0.00 | 0.00 | 0.00 | 34 | 1000.7 |
| 20260504160402 | 73 | 113 | 4.0 | 6.0 | 0.00 | 0.00 | 0.00 | 43 | 1001.0 |
| 20260504150802 | 68 | 23 | 4.0 | 6.0 | 0.00 | 0.00 | 0.00 | 45 | 1001.0 |
| 20260504141103 | 61 | 338 | 2.0 | 3.0 | 0.00 | 0.00 | 0.00 | 55 | 1001.4 |
| 20260504130502 | 55 | 68 | 2.0 | 2.0 | 0.00 | 0.00 | 0.00 | 65 | 1001.7 |
| 20260504080802 | 50 | 158 | 0.0 | 0.0 | 0.00 | 0.00 | 0.00 | 74 | 1002.7 |
| 20260504050202 | 57 | 158 | 0.0 | 0.0 | 0.00 | 0.00 | 0.00 | 55 | 1005.1 |
| 20260504045102 | 58 | 158 | 0.0 | 0.0 | 0.00 | 0.00 | 0.00 | 50 | 1005.4 |
| 20260504044002 | 58 | 158 | 0.0 | 0.0 | 0.00 | 0.00 | 0.00 | 53 | 1005.4 |
| 20260504041701 | 58 | 158 | 0.0 | 0.0 | 0.00 | 0.00 | 0.00 | 51 | 1005.8 |
| 20260504040602 | 59 | 158 | 0.0 | 0.0 | 0.00 | 0.00 | 0.00 | 54 | 1005.4 |
| 20260504035304 | 59 | 158 | 0.0 | 0.0 | 0.00 | 0.00 | 0.00 | 50 | 1005.8 |
| 20260504034203 | 61 | 158 | 0.0 | 0.0 | 0.00 | 0.00 | 0.00 | 50 | 1005.8 |